Stündliche Wetter Bolshie Elbuzdovskie

Heute, 28 November, Samstag

Zeit Temperatur Niederschläge Wind Luftdruck Luftfeuchtigkeit
00:00 +2°C° 0 mm 2 m/S 765 mmHg 79%
01:00 +1°C° 0 mm 3 m/S 765 mmHg 80%
02:00 +1°C° 0 mm 3 m/S 765 mmHg 82%
03:00 +1°C° 0 mm 3 m/S 765 mmHg 87%
04:00 +1°C° 0 mm 3 m/S 765 mmHg 87%
05:00 +1°C° 0 mm 3 m/S 765 mmHg 87%
06:00 +1°C° 0 mm 3 m/S 765 mmHg 88%
07:00 +1°C° 0 mm 3 m/S 765 mmHg 86%
08:00 +2°C° 0 mm 3 m/S 765 mmHg 85%
09:00 +2°C° 0 mm 3 m/S 765 mmHg 83%
10:00 +4°C° 0 mm 4 m/S 765 mmHg 78%
11:00 +5°C° 0 mm 4 m/S 765 mmHg 73%
12:00 +6°C° 0 mm 4 m/S 765 mmHg 68%
13:00 +7°C° 0 mm 4 m/S 764 mmHg 65%
14:00 +7°C° 0 mm 4 m/S 764 mmHg 62%
15:00 +8°C° 0 mm 4 m/S 764 mmHg 59%
16:00 +6°C° 0 mm 4 m/S 764 mmHg 62%
17:00 +5°C° 0 mm 4 m/S 764 mmHg 64%
18:00 +4°C° 0 mm 4 m/S 764 mmHg 67%
19:00 +2°C° 0 mm 5 m/S 764 mmHg 72%
20:00 +2°C° 0 mm 5 m/S 764 mmHg 77%
21:00 +2°C° 0 mm 5 m/S 764 mmHg 82%
22:00 +2°C° 0 mm 5 m/S 764 mmHg 85%
23:00 +3°C° 0 mm 4 m/S 763 mmHg 88%

Morgen, 29 November, Sonntag

Zeit Temperatur Niederschläge Wind Luftdruck Luftfeuchtigkeit
00:00 +1°C° 0 mm 4 m/S 763 mmHg 91%
01:00 +1°C° 0 mm 4 m/S 764 mmHg 92%
02:00 +1°C° 0 mm 4 m/S 764 mmHg 93%
03:00 +1°C° 0 mm 4 m/S 764 mmHg 94%
04:00 +1°C° 0 mm 4 m/S 764 mmHg 95%
05:00 +1°C° 0 mm 5 m/S 764 mmHg 95%
06:00 +1°C° 0 mm 5 m/S 763 mmHg 95%
07:00 +2°C° 0 mm 5 m/S 764 mmHg 93%
08:00 +2°C° 0 mm 5 m/S 764 mmHg 92%
09:00 +3°C° 0 mm 5 m/S 765 mmHg 91%
10:00 +4°C° 0 mm 6 m/S 765 mmHg 85%
11:00 +7°C° 0 mm 6 m/S 764 mmHg 79%
12:00 +8°C° 0 mm 6 m/S 764 mmHg 73%
13:00 +8°C° 0 mm 6 m/S 764 mmHg 71%
14:00 +8°C° 0 mm 6 m/S 764 mmHg 70%
15:00 +8°C° 0 mm 6 m/S 764 mmHg 69%
16:00 +7°C° 0 mm 5 m/S 764 mmHg 74%
17:00 +6°C° 0 mm 5 m/S 764 mmHg 80%
18:00 +5°C° 0 mm 4 m/S 764 mmHg 85%
19:00 +5°C° 0 mm 4 m/S 765 mmHg 87%
20:00 +5°C° 0 mm 4 m/S 765 mmHg 89%
21:00 +5°C° 0 mm 4 m/S 765 mmHg 91%
22:00 +5°C° 0 mm 4 m/S 765 mmHg 92%
23:00 +4°C° 0 mm 4 m/S 764 mmHg 92%

übermorgen, 30 November, Montag

Zeit Temperatur Niederschläge Wind Luftdruck Luftfeuchtigkeit
00:00 +4°C° 0 mm 4 m/S 764 mmHg 92%
01:00 +4°C° 0 mm 4 m/S 764 mmHg 92%
02:00 +3°C° 0 mm 5 m/S 764 mmHg 91%
03:00 +3°C° 0 mm 5 m/S 765 mmHg 91%
04:00 +3°C° 0 mm 5 m/S 764 mmHg 89%
05:00 +3°C° 0 mm 5 m/S 764 mmHg 88%
06:00 +3°C° 0 mm 5 m/S 764 mmHg 86%
07:00 +5°C° 0 mm 5 m/S 764 mmHg 82%
08:00 +4°C° 0 mm 6 m/S 764 mmHg 79%
09:00 +4°C° 0 mm 6 m/S 764 mmHg 75%
10:00 +5°C° 0 mm 7 m/S 764 mmHg 72%
11:00 +5°C° 0 mm 7 m/S 764 mmHg 69%
12:00 +6°C° 0 mm 8 m/S 764 mmHg 66%
13:00 +6°C° 0 mm 8 m/S 764 mmHg 66%
14:00 +6°C° 0 mm 8 m/S 763 mmHg 67%
15:00 +6°C° 0 mm 8 m/S 763 mmHg 67%
16:00 +6°C° 0 mm 8 m/S 763 mmHg 68%
17:00 +5°C° 0 mm 8 m/S 763 mmHg 69%
18:00 +5°C° 0 mm 8 m/S 763 mmHg 70%
19:00 +4°C° 0 mm 8 m/S 763 mmHg 70%
20:00 +4°C° 0 mm 8 m/S 763 mmHg 70%
21:00 +2°C° 0 mm 8 m/S 763 mmHg 70%
22:00 +2°C° 0 mm 8 m/S 763 mmHg 70%
23:00 +1°C° 0 mm 8 m/S 763 mmHg 71%

1 Dezember, Dienstag

Zeit Temperatur Niederschläge Wind Luftdruck Luftfeuchtigkeit
00:00 +1°C° 0 mm 8 m/S 763 mmHg 71%
01:00 +1°C° 0 mm 8 m/S 763 mmHg 70%
02:00 +1°C° 0 mm 8 m/S 763 mmHg 70%
03:00 +1°C° 0 mm 8 m/S 763 mmHg 69%
04:00 0°C° 0 mm 8 m/S 763 mmHg 71%
05:00 0°C° 0 mm 8 m/S 763 mmHg 72%
06:00 0°C° 0 mm 8 m/S 763 mmHg 74%
07:00 0°C° 0 mm 9 m/S 763 mmHg 74%
08:00 0°C° 0 mm 9 m/S 763 mmHg 74%
09:00 0°C° 0 mm 9 m/S 763 mmHg 74%
10:00 +1°C° 0 mm 9 m/S 763 mmHg 73%
11:00 +1°C° 0 mm 9 m/S 763 mmHg 71%
12:00 +2°C° 0 mm 9 m/S 763 mmHg 70%
13:00 +2°C° 0 mm 9 m/S 763 mmHg 70%
14:00 +2°C° 0 mm 9 m/S 763 mmHg 69%
15:00 +3°C° 0 mm 9 m/S 763 mmHg 69%
16:00 +2°C° 0 mm 9 m/S 763 mmHg 71%
17:00 +2°C° 0 mm 8 m/S 763 mmHg 72%
18:00 +2°C° 0 mm 8 m/S 763 mmHg 73%
19:00 +1°C° 0 mm 8 m/S 764 mmHg 74%
20:00 +1°C° 0 mm 8 m/S 764 mmHg 75%
21:00 0°C° 0 mm 8 m/S 764 mmHg 77%
22:00 0°C° 0 mm 8 m/S 764 mmHg 78%
23:00 0°C° 0 mm 8 m/S 765 mmHg 79%

2 Dezember, Mittwoch

Zeit Temperatur Niederschläge Wind Luftdruck Luftfeuchtigkeit
00:00 -1°C° 0 mm 7 m/S 765 mmHg 80%
01:00 -1°C° 0 mm 7 m/S 765 mmHg 79%
02:00 0°C° 0 mm 7 m/S 765 mmHg 78%
03:00 0°C° 0 mm 7 m/S 765 mmHg 77%
04:00 0°C° 0 mm 7 m/S 765 mmHg 77%
05:00 0°C° 0 mm 8 m/S 765 mmHg 77%
06:00 -1°C° 0 mm 8 m/S 766 mmHg 77%
07:00 -1°C° 0 mm 8 m/S 766 mmHg 77%
08:00 -1°C° 0 mm 8 m/S 766 mmHg 77%
09:00 -1°C° 0 mm 8 m/S 766 mmHg 77%
10:00 0°C° 0 mm 8 m/S 766 mmHg 76%
11:00 0°C° 0 mm 8 m/S 766 mmHg 75%
12:00 0°C° 0 mm 8 m/S 766 mmHg 74%
13:00 0°C° 0 mm 7 m/S 766 mmHg 73%
14:00 +2°C° 0 mm 7 m/S 766 mmHg 73%
15:00 +2°C° 0 mm 7 m/S 765 mmHg 72%
16:00 +2°C° 0 mm 7 m/S 766 mmHg 73%
17:00 0°C° 0 mm 8 m/S 766 mmHg 74%
18:00 0°C° 0 mm 8 m/S 766 mmHg 75%
19:00 0°C° 0 mm 8 m/S 766 mmHg 76%
20:00 0°C° 0 mm 8 m/S 766 mmHg 76%
21:00 0°C° 0 mm 8 m/S 767 mmHg 77%
22:00 -1°C° 0 mm 7 m/S 767 mmHg 78%
23:00 -1°C° 0 mm 7 m/S 767 mmHg 79%

3 Dezember, Donnerstag

Zeit Temperatur Niederschläge Wind Luftdruck Luftfeuchtigkeit
00:00 -2°C° 0 mm 7 m/S 767 mmHg 80%
01:00 -2°C° 0 mm 7 m/S 767 mmHg 81%
02:00 -3°C° 0 mm 7 m/S 767 mmHg 82%
03:00 -3°C° 0 mm 7 m/S 767 mmHg 83%
04:00 -3°C° 0 mm 7 m/S 767 mmHg 83%
05:00 -3°C° 0 mm 7 m/S 767 mmHg 83%
06:00 -3°C° 0 mm 7 m/S 767 mmHg 83%
07:00 -3°C° 0 mm 7 m/S 767 mmHg 82%
08:00 -3°C° 0 mm 7 m/S 768 mmHg 81%
09:00 -2°C° 0 mm 7 m/S 768 mmHg 81%
10:00 -2°C° 0 mm 7 m/S 768 mmHg 78%
11:00 -1°C° 0 mm 7 m/S 768 mmHg 75%
12:00 -1°C° 0 mm 7 m/S 768 mmHg 72%
13:00 -1°C° 0 mm 7 m/S 767 mmHg 71%
14:00 -1°C° 0 mm 7 m/S 767 mmHg 70%
15:00 0°C° 0 mm 7 m/S 767 mmHg 69%
16:00 -1°C° 0 mm 7 m/S 767 mmHg 70%
17:00 -1°C° 0 mm 7 m/S 767 mmHg 71%
18:00 -1°C° 0 mm 7 m/S 767 mmHg 71%
19:00 -2°C° 0 mm 7 m/S 767 mmHg 72%
20:00 -2°C° 0 mm 7 m/S 767 mmHg 73%
21:00 -2°C° 0 mm 7 m/S 767 mmHg 74%
22:00 -3°C° 0 mm 7 m/S 767 mmHg 76%
23:00 -3°C° 0 mm 7 m/S 767 mmHg 77%
Mehr zeigen

Wir brauchen deine Erlaubnis

Meteoprog und unser Service Anbieter werden persönliche Daten aufbewahren, so wie Cookies, Geräte Bezeichnung oder ähnliche Technologien von deinem Gerät und Prozess, so wie Persönliche Daten Inhalte und Werbungen, genauso wie social Media und den Verkehr zu analysieren.

  • Aufbewahrung und/oder Zugang zu deiner Geräte Informationen.

    Cookies, Geräte Bezeichnung oder andere Informationen, können aufbewahrt oder Zugang zu deinem Gerät erhalten, für den Grund, der oben angegeben wird.

  • Personalisierte Werbung und Inhalte, Messungen, Einblick in das Publikum und Produkt Entwicklung.

    Werbungen und Inhalte können personalisiert werden, basierend auf ein Profil. Mehr Daten können besser personalisierte Werbungen und Inhalte hinzufügen. Werbung und Inhalte können gezeigt und gemessen werden. Einblicke über das Publikum, welche die Werbung gesehen haben und den Inhalt, können abgeleitet werden. So wie Daten können genutzt werden, um es zu verbessern oder die Benutzer Erfahrung zu verbessern das System und die Software.

Wenn du “Ich stimme zu” klickst, erlaubst du uns, die Cookies zu benutzen die Geräte Bezeichnung, den Web oder ähnliche Technologien zu benutzen. Deine Settings, können in deinem Gerät bei deinem Browser geändert werden.

Für den bestimmten Zweck, berechtigten Interessen beruhen darauf, mehr als auf den Inhalt. Du kannst mehr darüber in unseren Privaten und Cookie Politik lesen.